Wind_Speed
28 28 28 27 27 28 29 29 29 29 29 29 30 30 30 30 31 31 31 31 32 33 34 35 37 38 40 41 41 41 41 44 46 47 48 49 51 52 52 53 53 54 53 53
29 28 28 27 27 28 29 29 30 30 29 30 30 30 30 31 31 31 32 32 32 33 34 35 35 37 38 39 40 41 40 42 44 46 47 47 49 51 51 52 52 53 54 53
30 29 29 28 28 28 29 29 30 30 30 30 31 31 31 32 32 32 32 32 33 34 34 35 35 36 37 38 39 40 40 41 43 45 46 48 48 50 51 50 51 52 52 52
31 31 30 29 29 29 29 29 29 29 29 30 31 31 31 31 31 32 32 33 34 35 35 35 36 36 36 37 39 40 40 40 41 43 44 46 48 49 50 51 51 52 52 51
32 32 31 29 29 29 29 29 29 29 29 30 30 31 31 32 32 32 31 32 33 34 35 36 36 36 37 38 38 39 40 39 39 41 43 44 46 48 49 49 50 50 50 50
32 32 32 30 30 30 30 29 29 29 30 29 30 30 30 32 32 31 31 31 32 32 33 33 34 34 36 37 39 39 40 41 40 39 41 44 45 46 48 49 49 49 50 50
31 31 31 30 30 29 29 30 30 30 30 30 30 30 30 31 31 31 31 32 32 32 32 32 32 33 33 35 37 38 39 39 39 40 41 42 43 44 46 47 49 49 50 50
32 32 31 31 30 30 30 31 31 31 31 31 30 30 30 30 30 30 30 31 31 31 31 31 32 32 32 34 35 35 36 37 37 38 39 41 42 43 44 46 47 48 49 50
31 31 31 31 31 31 31 31 31 31 31 31 31 30 30 30 30 30 30 30 30 29 29 29 30 30 31 32 33 34 35 36 37 38 39 40 41 42 43 44 45 46 47 48
31 30 31 31 31 31 31 31 31 31 31 31 30 30 30 30 30 30 30 29 28 28 27 28 28 29 29 30 31 33 34 35 36 36 38 39 39 40 42 43 44 45 46 47
31 31 31 31 31 31 30 30 30 29 29 29 29 29 28 28 28 28 28 28 28 27 27 27 27 28 29 29 30 31 32 33 34 36 37 38 39 39 40 41 42 43 44 45
32 32 31 31 31 31 31 30 29 29 29 29 29 29 28 28 28 28 28 28 27 27 27 27 27 27 27 28 29 30 31 32 33 34 35 36 37 38 39 40 41 42 43 44
32 32 31 32 32 31 31 30 30 30 29 28 29 28 28 29 29 28 28 28 27 27 27 27 27 27 27 28 28 29 30 31 32 32 33 34 35 37 38 39 40 42 43 44
32 31 31 32 32 32 31 31 30 30 30 29 29 29 28 28 28 28 28 28 28 28 28 28 28 28 28 29 29 29 30 31 31 32 32 33 34 35 36 37 38 40 41 43
31 31 31 32 31 31 31 31 31 31 31 30 30 30 29 29 29 28 28 28 28 28 28 28 28 28 28 28 29 29 28 28 28 29 30 31 32 33 34 35 36 37 38 40
31 31 32 31 31 31 31 31 31 30 30 30 29 29 29 29 29 28 28 28 27 27 27 27 26 26 26 27 27 28 28 27 27 27 28 29 30 31 32 33 33 34 35 37
32 32 32 32 31 31 31 31 31 30 29 29 28 28 28 29 29 29 28 28 27 27 26 26 26 26 26 26 26 26 27 27 27 27 27 27 27 28 30 31 32 32 33 34
32 33 33 33 32 32 32 32 31 30 29 29 29 29 29 29 29 28 28 27 27 26 27 27 27 26 26 26 26 26 27 27 27 26 26 26 26 27 28 29 29 30 30 31
32 32 33 33 33 33 33 32 31 30 30 30 29 29 29 29 29 28 28 27 26 26 26 27 26 26 26 26 26 25 25 25 25 25 25 25 25 26 27 27 28 29 29 30
31 32 32 33 33 33 33 32 32 31 30 29 29 28 28 28 28 28 27 26 26 25 26 26 26 26 25 26 25 25 25 25 25 25 25 25 25 25 26 26 27 28 29 29
31 32 32 32 32 32 32 32 31 31 30 29 29 28 28 28 28 27 27 26 26 25 25 25 25 25 25 25 25 25 25 25 25 25 25 25 25 25 25 25 25 26 26 27
32 32 32 32 32 32 32 32 31 31 30 29 29 29 29 28 28 28 27 26 26 25 25 25 25 25 25 25 24 24 24 24 24 25 26 26 26 25 25 25 25 24 24 24
32 33 33 33 33 33 32 32 31 30 30 29 29 29 29 28 28 27 27 27 26 26 26 26 25 25 25 25 25 24 24 24 24 25 25 25 25 25 25 24 24 23 23 23
32 33 33 33 33 33 32 32 31 30 29 29 29 28 28 28 27 27 27 27 27 26 26 26 26 26 26 26 25 25 25 25 25 25 25 24 24 24 23 23 23 22 22 22
33 33 33 33 33 33 32 31 30 30 29 29 28 28 28 28 27 27 27 27 27 27 26 27 27 27 26 26 26 26 25 25 25 24 24 23 23 23 22 22 22 22 22 22
33 34 34 33 33 32 31 31 30 30 29 29 28 28 28 27 27 27 27 27 27 27 26 26 27 26 26 26 25 25 25 24 24 23 23 23 22 22 22 22 21 22 22 22
33 33 33 32 32 31 31 30 30 29 29 28 27 27 27 27 26 26 26 26 26 26 26 26 26 26 25 25 25 24 24 23 23 22 22 22 22 22 22 22 22 21 21 21
Wind_Direction
312 308 304 301 298 296 292 292 292 292 291 291 290 288 286 284 282 280 279 278 277 274 271 268 265 262 259 257 255 256 257 256 254 253 251 250 248 247 247 247 248 247 248 249
310 308 304 302 299 297 295 293 292 292 290 289 290 289 287 285 284 282 280 279 278 277 274 271 268 266 262 259 257 258 259 258 256 254 252 251 250 249 249 248 248 249 249 249
312 309 305 303 300 299 297 295 294 293 291 289 290 289 286 285 285 283 282 280 279 277 276 275 272 269 265 261 258 258 259 261 259 256 253 252 251 251 249 248 248 248 248 248
313 311 308 307 302 300 298 298 297 296 295 292 289 288 286 286 287 286 283 281 281 279 277 275 274 271 266 262 260 259 260 260 261 258 256 254 253 252 251 250 250 249 248 249
313 311 308 307 304 302 300 299 296 296 296 294 291 289 287 287 288 287 286 284 283 281 279 276 274 271 267 264 262 261 259 260 260 258 256 255 254 253 252 251 251 250 248 249
313 311 311 310 306 304 303 301 298 296 295 295 294 291 290 288 288 288 287 286 285 283 280 277 274 271 268 266 265 264 262 261 260 259 257 257 256 255 254 252 251 250 249 249
314 312 313 312 308 305 302 302 301 298 296 294 294 294 293 291 289 289 288 287 285 284 282 279 277 274 270 268 266 265 264 262 261 260 259 257 256 255 254 253 252 252 251 250
314 314 314 312 309 305 302 300 299 299 298 296 294 294 293 293 292 290 290 288 286 285 283 280 278 275 273 271 268 266 264 264 264 263 261 259 258 256 255 254 254 253 252 252
313 314 312 311 309 307 305 303 301 299 298 297 295 294 294 293 293 292 291 290 289 287 285 282 280 278 276 273 269 267 266 265 264 264 262 261 259 258 257 257 255 254 253 253
313 313 312 312 311 309 308 306 304 301 299 298 297 296 294 294 293 293 291 290 290 288 286 284 283 281 279 276 272 269 268 267 267 265 263 262 261 261 259 258 257 256 254 253
311 310 311 311 311 310 309 308 307 305 303 300 298 297 296 295 295 294 293 292 291 289 287 286 284 282 281 278 275 272 270 269 269 268 265 263 263 263 261 260 258 257 255 255
311 310 311 311 311 311 310 308 307 305 304 302 300 298 297 296 295 295 294 293 291 290 288 287 286 285 284 281 279 276 274 273 273 271 269 266 264 263 262 261 259 257 256 255
310 310 310 310 310 310 309 307 306 305 304 303 301 300 299 297 296 296 295 293 291 290 289 288 287 286 285 285 282 280 278 276 275 274 271 269 266 263 262 261 259 259 258 257
310 311 310 310 310 310 309 307 305 304 303 303 302 301 301 300 299 297 295 294 292 291 290 288 287 286 285 286 284 282 280 279 277 275 272 272 269 266 263 262 261 261 260 259
310 310 311 311 311 310 309 308 306 304 303 302 302 301 301 301 301 299 298 296 293 292 291 291 289 287 286 286 285 284 282 282 281 278 275 273 272 269 265 263 262 262 260 259
309 310 311 312 312 312 311 310 308 306 305 304 303 302 301 301 301 300 299 297 295 293 292 292 291 290 287 287 287 286 285 285 283 281 278 276 274 271 268 265 264 263 261 259
309 310 311 312 312 312 311 310 309 308 307 306 304 303 303 302 301 300 299 298 296 294 293 292 292 291 289 288 288 287 287 287 286 284 282 280 278 275 271 268 267 265 262 259
309 310 311 311 312 312 311 310 309 307 307 306 305 303 303 303 302 300 299 298 296 295 294 293 293 293 291 290 289 288 288 287 287 285 283 282 280 278 275 272 269 266 263 260
310 310 310 311 312 312 312 311 309 307 306 306 305 304 303 303 302 301 299 297 296 294 294 294 294 293 292 291 291 289 288 288 288 287 285 284 282 280 278 274 272 269 266 263
311 311 311 312 313 313 312 311 310 307 305 304 304 304 304 304 303 302 300 298 295 295 295 295 295 294 293 291 291 290 289 288 287 287 286 285 284 281 280 278 275 272 268 265
313 313 313 313 313 313 313 312 311 309 306 304 303 303 304 304 303 302 301 299 297 296 295 295 295 294 293 292 292 291 290 288 286 286 286 286 285 283 280 279 278 275 272 268
314 314 314 314 314 314 313 312 312 310 307 305 303 303 303 303 302 302 301 299 297 296 296 296 295 294 293 292 292 292 291 289 287 287 286 285 285 284 281 279 277 275 273 271
314 314 315 315 315 314 314 313 312 311 309 307 305 303 303 302 302 302 301 300 298 297 296 296 296 295 294 293 292 291 290 289 288 288 287 286 285 284 282 280 277 274 273 271
314 314 315 315 316 316 315 314 313 312 311 310 308 307 305 303 303 302 303 302 300 298 296 296 296 296 295 293 292 290 289 288 288 287 287 286 285 283 282 280 277 274 272 271
313 314 315 316 316 317 317 316 315 314 313 313 312 310 308 306 304 304 303 303 301 299 298 297 297 297 296 295 293 291 290 289 287 286 286 286 284 282 281 280 278 275 273 272
313 314 315 315 316 317 317 317 316 316 315 314 314 313 312 310 308 306 305 304 303 301 299 297 297 297 296 295 294 293 292 290 288 286 285 284 283 282 280 280 279 277 275 273
314 315 315 315 316 317 318 319 319 318 317 316 316 316 315 313 310 308 306 304 303 302 301 299 297 296 296 295 294 293 292 291 289 286 285 284 283 281 280 279 278 278 277 275
Height
5584 5580 5577 5574 5572 5569 5566 5564 5561 5560 5558 5556 5552 5551 5549 5547 5546 5544 5543 5542 5541 5540 5539 5539 5539 5539 5539 5540 5541 5542 5543 5544 5545 5547 5550 5552 5556 5561 5565 5569 5573 5578 5582 5586
5580 5575 5571 5569 5566 5563 5559 5556 5554 5552 5551 5549 5545 5543 5541 5539 5538 5536 5535 5534 5532 5531 5530 5530 5529 5529 5529 5530 5530 5531 5532 5533 5534 5536 5538 5540 5544 5548 5552 5556 5560 5564 5569 5573
5574 5569 5566 5564 5561 5557 5553 5550 5547 5545 5544 5541 5538 5536 5533 5531 5530 5528 5526 5525 5523 5522 5521 5520 5519 5519 5519 5519 5519 5520 5521 5521 5522 5524 5526 5529 5532 5535 5539 5543 5547 5551 5555 5559
5567 5564 5560 5560 5554 5550 5547 5544 5540 5537 5535 5533 5530 5528 5525 5523 5522 5520 5518 5516 5514 5513 5511 5510 5509 5509 5509 5508 5508 5509 5510 5510 5511 5513 5515 5518 5520 5523 5527 5530 5533 5537 5541 5544
5560 5556 5553 5552 5547 5543 5540 5538 5534 5531 5528 5525 5522 5520 5518 5516 5514 5511 5509 5507 5505 5503 5501 5500 5499 5498 5498 5498 5498 5498 5499 5500 5500 5501 5503 5506 5508 5511 5514 5517 5520 5523 5527 5531
5554 5549 5546 5546 5540 5536 5533 5531 5528 5524 5521 5518 5515 5513 5512 5508 5506 5503 5501 5498 5496 5494 5492 5490 5489 5488 5488 5488 5488 5488 5488 5489 5489 5490 5492 5494 5496 5498 5501 5504 5507 5510 5514 5517
5548 5542 5540 5537 5533 5529 5527 5524 5520 5516 5513 5511 5508 5505 5503 5500 5497 5495 5492 5490 5488 5485 5483 5481 5480 5479 5478 5478 5478 5477 5477 5478 5479 5480 5480 5482 5484 5486 5488 5491 5494 5497 5500 5504
5542 5538 5537 5530 5526 5523 5520 5515 5512 5508 5506 5503 5500 5497 5494 5492 5489 5487 5484 5481 5479 5477 5475 5473 5471 5470 5469 5469 5468 5467 5467 5468 5468 5469 5470 5471 5472 5474 5476 5478 5481 5483 5486 5490
5538 5535 5529 5524 5520 5516 5512 5508 5505 5501 5498 5495 5492 5490 5487 5484 5481 5479 5476 5474 5471 5469 5467 5464 5463 5461 5460 5459 5458 5458 5458 5458 5458 5458 5459 5459 5461 5462 5464 5466 5468 5470 5473 5476
5532 5528 5523 5518 5514 5510 5505 5501 5497 5494 5491 5488 5485 5482 5479 5476 5474 5471 5468 5465 5463 5461 5459 5457 5454 5453 5451 5450 5449 5448 5448 5448 5447 5448 5448 5448 5449 5450 5451 5453 5455 5457 5460 5462
5526 5522 5517 5513 5508 5504 5499 5495 5491 5487 5483 5480 5477 5474 5471 5468 5466 5463 5460 5458 5455 5453 5451 5449 5446 5445 5443 5441 5440 5439 5438 5437 5437 5437 5437 5437 5437 5438 5439 5440 5442 5444 5446 5449
5519 5515 5510 5506 5501 5497 5492 5488 5484 5480 5476 5473 5470 5467 5464 5461 5458 5455 5452 5450 5447 5445 5443 5441 5438 5436 5434 5432 5430 5429 5428 5427 5426 5426 5425 5425 5426 5426 5426 5428 5429 5431 5433 5435
5511 5507 5503 5498 5494 5490 5485 5481 5477 5473 5470 5466 5463 5459 5456 5453 5450 5447 5445 5442 5439 5437 5435 5432 5430 5428 5426 5424 5422 5420 5418 5417 5416 5415 5414 5414 5414 5414 5415 5416 5417 5418 5420 5422
5504 5500 5495 5491 5487 5482 5478 5474 5470 5466 5462 5459 5455 5452 5449 5445 5442 5439 5437 5434 5431 5429 5426 5424 5422 5420 5417 5415 5413 5411 5409 5407 5406 5404 5403 5403 5402 5402 5403 5403 5405 5406 5407 5408
5497 5492 5488 5483 5479 5475 5470 5466 5462 5458 5455 5451 5447 5444 5441 5438 5435 5431 5429 5426 5423 5421 5418 5416 5413 5411 5409 5407 5404 5402 5400 5398 5396 5395 5393 5393 5392 5391 5391 5392 5393 5394 5395 5396
5490 5485 5480 5476 5472 5467 5463 5459 5455 5451 5447 5443 5440 5436 5433 5430 5427 5424 5421 5418 5415 5413 5410 5408 5405 5403 5400 5398 5396 5393 5391 5389 5387 5386 5384 5383 5382 5382 5381 5381 5382 5382 5383 5384
5482 5478 5473 5469 5464 5460 5456 5451 5447 5443 5439 5435 5432 5429 5425 5422 5419 5416 5413 5410 5407 5404 5402 5399 5397 5394 5392 5390 5387 5385 5383 5381 5379 5377 5375 5374 5373 5372 5372 5371 5372 5372 5372 5373
5474 5470 5466 5461 5457 5452 5448 5444 5439 5435 5431 5428 5424 5421 5417 5414 5411 5408 5405 5402 5399 5396 5394 5391 5389 5386 5384 5382 5379 5377 5375 5372 5370 5368 5367 5366 5364 5363 5362 5362 5362 5362 5362 5363
5466 5462 5458 5453 5449 5444 5440 5435 5431 5427 5423 5420 5416 5413 5409 5406 5403 5399 5396 5393 5391 5388 5386 5383 5381 5378 5376 5374 5371 5369 5367 5364 5362 5361 5359 5358 5356 5355 5354 5353 5353 5352 5352 5353
5459 5454 5450 5446 5441 5437 5432 5427 5423 5419 5415 5411 5408 5404 5401 5398 5394 5391 5388 5385 5382 5380 5378 5375 5373 5370 5368 5366 5363 5361 5359 5357 5355 5353 5351 5350 5348 5347 5346 5344 5344 5343 5343 5343
5452 5447 5443 5438 5433 5429 5424 5419 5415 5410 5406 5403 5399 5396 5393 5390 5386 5383 5380 5377 5375 5372 5370 5367 5365 5363 5360 5358 5356 5353 5351 5349 5347 5345 5344 5342 5340 5339 5338 5336 5335 5335 5334 5334
5444 5440 5435 5430 5426 5421 5416 5411 5407 5402 5398 5394 5391 5388 5384 5381 5378 5375 5372 5369 5367 5364 5362 5359 5357 5355 5352 5350 5348 5346 5344 5341 5339 5338 5336 5334 5333 5331 5330 5329 5328 5327 5326 5326
5437 5432 5428 5423 5418 5413 5408 5404 5399 5394 5390 5386 5383 5379 5376 5373 5370 5367 5364 5361 5358 5356 5354 5351 5349 5347 5344 5342 5340 5338 5336 5334 5332 5330 5328 5326 5325 5323 5322 5321 5320 5319 5319 5319
5430 5425 5420 5416 5411 5406 5401 5396 5391 5387 5383 5379 5375 5371 5368 5364 5361 5358 5356 5353 5350 5348 5346 5343 5341 5339 5336 5334 5332 5330 5328 5326 5324 5322 5321 5319 5317 5316 5315 5314 5313 5312 5312 5312
5422 5417 5413 5408 5403 5398 5394 5389 5384 5380 5376 5371 5367 5363 5360 5356 5353 5350 5347 5345 5342 5339 5337 5335 5332 5330 5328 5326 5324 5322 5320 5318 5316 5315 5313 5312 5310 5309 5308 5307 5306 5306 5305 5305
5415 5410 5405 5400 5396 5391 5387 5382 5377 5373 5368 5364 5360 5356 5352 5348 5345 5342 5339 5336 5334 5331 5329 5326 5324 5322 5320 5317 5315 5313 5311 5310 5308 5307 5305 5304 5303 5302 5301 5300 5299 5299 5298 5298
5407 5402 5397 5393 5388 5384 5379 5375 5370 5366 5361 5357 5353 5349 5345 5341 5338 5335 5332 5329 5326 5323 5320 5318 5315 5313 5311 5309 5307 5305 5304 5302 5300 5299 5298 5297 5295 5294 5294 5293 5292 5292 5291 5291